owner,sensor,date,latitude,longitude,vertical_datum,sea_water_practical_salinity,qcFlag 
SCCF RECON,ioos:station:SCCF:12:1,2010-07-01T00:00:00Z,26.4966,-82.1479,2.071,30.3,1111122 
SCCF RECON,ioos:station:SCCF:12:1,2010-07-01T01:00:00Z,26.4966,-82.1479,2.0,30.29,1111122 
SCCF RECON,ioos:station:SCCF:12:1,2010-07-01T02:00:00Z,26.4966,-82.1479,1.908,30.17,1111122 
SCCF RECON,ioos:station:SCCF:12:1,2010-07-01T03:00:00Z,26.4966,-82.1479,1.84,29.98,1111122 
SCCF RECON,ioos:station:SCCF:12:1,2010-07-01T04:00:00Z,26.4966,-82.1479,1.83,30.12,1111122 
SCCF RECON,ioos:station:SCCF:12:1,2010-07-01T05:00:00Z,26.4966,-82.1479,1.889,30.05,1111122 
SCCF RECON,ioos:station:SCCF:12:1,2010-07-01T06:00:00Z,26.4966,-82.1479,2.02,30.02,1111122 
SCCF RECON,ioos:station:SCCF:12:1,2010-07-01T07:00:00Z,26.4966,-82.1479,2.17,29.98,1111122 
SCCF RECON,ioos:station:SCCF:12:1,2010-07-01T08:00:00Z,26.4966,-82.1479,2.25,30.06,1111122 
SCCF RECON,ioos:station:SCCF:12:1,2010-07-01T09:00:00Z,26.4966,-82.1479,2.276,30.12,1111122 
SCCF RECON,ioos:station:SCCF:12:1,2010-07-01T10:00:00Z,26.4966,-82.1479,2.248,29.97,1111122 
SCCF RECON,ioos:station:SCCF:12:1,2010-07-01T11:00:00Z,26.4966,-82.1479,2.21,30.0,1111122 
SCCF RECON,ioos:station:SCCF:12:1,2010-07-01T12:00:00Z,26.4966,-82.1479,2.17,30.12,1111122 
SCCF RECON,ioos:station:SCCF:12:1,2010-07-01T13:00:00Z,26.4966,-82.1479,2.147,30.28,1111122 
SCCF RECON,ioos:station:SCCF:12:1,2010-07-01T14:00:00Z,26.4966,-82.1479,2.109,30.33,1111122 
SCCF RECON,ioos:station:SCCF:12:1,2010-07-01T15:00:00Z,26.4966,-82.1479,2.06,30.35,1111122 
SCCF RECON,ioos:station:SCCF:12:1,2010-07-01T16:00:00Z,26.4966,-82.1479,2.07,30.36,1111122 
SCCF RECON,ioos:station:SCCF:12:1,2010-07-01T17:00:00Z,26.4966,-82.1479,2.12,30.16,1111122 
SCCF RECON,ioos:station:SCCF:12:1,2010-07-01T18:00:00Z,26.4966,-82.1479,2.2,30.19,1111122 
SCCF RECON,ioos:station:SCCF:12:1,2010-07-01T19:00:00Z,26.4966,-82.1479,2.26,30.16,1111122 
SCCF RECON,ioos:station:SCCF:12:1,2010-07-01T20:00:00Z,26.4966,-82.1479,2.31,30.16,1111122 
SCCF RECON,ioos:station:SCCF:12:1,2010-07-01T21:00:00Z,26.4966,-82.1479,2.31,30.13,1111122 
SCCF RECON,ioos:station:SCCF:12:1,2010-07-01T22:00:00Z,26.4966,-82.1479,2.28,30.65,1111122 
SCCF RECON,ioos:station:SCCF:12:1,2010-07-01T23:00:00Z,26.4966,-82.1479,2.2,30.37,1111122 
SCCF RECON,ioos:station:SCCF:12:1,2010-07-02T00:00:00Z,26.4966,-82.1479,2.109,30.32,1111122 
SCCF RECON,ioos:station:SCCF:12:1,2010-07-02T01:00:00Z,26.4966,-82.1479,1.997,30.26,1111122 
SCCF RECON,ioos:station:SCCF:12:1,2010-07-02T02:00:00Z,26.4966,-82.1479,1.9,30.22,1111122 
SCCF RECON,ioos:station:SCCF:12:1,2010-07-02T03:00:00Z,26.4966,-82.1479,1.83,30.11,1111122 
SCCF RECON,ioos:station:SCCF:12:1,2010-07-02T04:00:00Z,26.4966,-82.1479,1.81,30.22,1111122 
SCCF RECON,ioos:station:SCCF:12:1,2010-07-02T05:00:00Z,26.4966,-82.1479,1.865,30.26,1111122 
SCCF RECON,ioos:station:SCCF:12:1,2010-07-02T06:00:00Z,26.4966,-82.1479,1.941,30.22,1111122 
SCCF RECON,ioos:station:SCCF:12:1,2010-07-02T07:00:00Z,26.4966,-82.1479,2.05,30.13,1111122 
SCCF RECON,ioos:station:SCCF:12:1,2010-07-02T08:00:00Z,26.4966,-82.1479,2.17,30.17,1111122 
SCCF RECON,ioos:station:SCCF:12:1,2010-07-02T09:00:00Z,26.4966,-82.1479,2.24,30.15,1111122 
SCCF RECON,ioos:station:SCCF:12:1,2010-07-02T10:00:00Z,26.4966,-82.1479,2.248,30.33,1111122 
SCCF RECON,ioos:station:SCCF:12:1,2010-07-02T11:00:00Z,26.4966,-82.1479,2.21,30.33,1111122 
SCCF RECON,ioos:station:SCCF:12:1,2010-07-02T12:00:00Z,26.4966,-82.1479,2.156,30.29,1111122 
SCCF RECON,ioos:station:SCCF:12:1,2010-07-02T13:00:00Z,26.4966,-82.1479,2.1,30.25,1111122 
SCCF RECON,ioos:station:SCCF:12:1,2010-07-02T14:00:00Z,26.4966,-82.1479,2.048,30.25,1111122 
SCCF RECON,ioos:station:SCCF:12:1,2010-07-02T15:00:00Z,26.4966,-82.1479,1.986,30.23,1111122 
SCCF RECON,ioos:station:SCCF:12:1,2010-07-02T16:00:00Z,26.4966,-82.1479,1.953,30.19,1111122 
SCCF RECON,ioos:station:SCCF:12:1,2010-07-02T17:00:00Z,26.4966,-82.1479,2.0,30.17,1111122 
SCCF RECON,ioos:station:SCCF:12:1,2010-07-02T18:00:00Z,26.4966,-82.1479,2.056,30.23,1111122 
SCCF RECON,ioos:station:SCCF:12:1,2010-07-02T19:00:00Z,26.4966,-82.1479,2.136,30.06,1111122 
SCCF RECON,ioos:station:SCCF:12:1,2010-07-02T20:00:00Z,26.4966,-82.1479,2.187,30.02,1111122 
SCCF RECON,ioos:station:SCCF:12:1,2010-07-02T21:00:00Z,26.4966,-82.1479,2.197,29.92,1111122 
SCCF RECON,ioos:station:SCCF:12:1,2010-07-02T22:00:00Z,26.4966,-82.1479,2.179,29.82,1111122 
SCCF RECON,ioos:station:SCCF:12:1,2010-07-02T23:00:00Z,26.4966,-82.1479,2.144,29.86,1111122 
SCCF RECON,ioos:station:SCCF:12:1,2010-07-03T00:00:00Z,26.4966,-82.1479,2.123,29.89,1111122 
SCCF RECON,ioos:station:SCCF:12:1,2010-07-03T01:00:00Z,26.4966,-82.1479,2.047,29.9,1111122 
SCCF RECON,ioos:station:SCCF:12:1,2010-07-03T02:00:00Z,26.4966,-82.1479,1.969,29.92,1111122 
SCCF RECON,ioos:station:SCCF:12:1,2010-07-03T03:00:00Z,26.4966,-82.1479,1.89,29.95,1111122 
SCCF RECON,ioos:station:SCCF:12:1,2010-07-03T04:00:00Z,26.4966,-82.1479,1.84,29.99,1111122 
SCCF RECON,ioos:station:SCCF:12:1,2010-07-03T05:00:00Z,26.4966,-82.1479,1.84,29.98,1111122 
SCCF RECON,ioos:station:SCCF:12:1,2010-07-03T06:00:00Z,26.4966,-82.1479,1.93,29.94,1111122 
SCCF RECON,ioos:station:SCCF:12:1,2010-07-03T07:00:00Z,26.4966,-82.1479,2.052,29.8,1111122 
SCCF RECON,ioos:station:SCCF:12:1,2010-07-03T08:00:00Z,26.4966,-82.1479,2.17,29.77,1111122 
SCCF RECON,ioos:station:SCCF:12:1,2010-07-03T09:00:00Z,26.4966,-82.1479,2.259,29.84,1111122 
SCCF RECON,ioos:station:SCCF:12:1,2010-07-03T10:00:00Z,26.4966,-82.1479,2.28,29.88,1111122 
SCCF RECON,ioos:station:SCCF:12:1,2010-07-03T11:00:00Z,26.4966,-82.1479,2.31,29.93,1111122 
SCCF RECON,ioos:station:SCCF:12:1,2010-07-03T12:00:00Z,26.4966,-82.1479,2.299,29.87,1111122 
SCCF RECON,ioos:station:SCCF:12:1,2010-07-03T13:00:00Z,26.4966,-82.1479,2.239,29.78,1111122 
SCCF RECON,ioos:station:SCCF:12:1,2010-07-03T14:00:00Z,26.4966,-82.1479,2.157,29.72,1111122 
SCCF RECON,ioos:station:SCCF:12:1,2010-07-03T15:00:00Z,26.4966,-82.1479,2.092,29.74,1111122 
SCCF RECON,ioos:station:SCCF:12:1,2010-07-03T16:00:00Z,26.4966,-82.1479,2.033,29.73,1111122 
SCCF RECON,ioos:station:SCCF:12:1,2010-07-03T17:00:00Z,26.4966,-82.1479,1.98,29.73,1111122 
SCCF RECON,ioos:station:SCCF:12:1,2010-07-03T18:00:00Z,26.4966,-82.1479,1.96,29.71,1111122 
SCCF RECON,ioos:station:SCCF:12:1,2010-07-03T19:00:00Z,26.4966,-82.1479,2.0,29.79,1111122 
SCCF RECON,ioos:station:SCCF:12:1,2010-07-03T20:00:00Z,26.4966,-82.1479,2.093,29.88,1111122 
SCCF RECON,ioos:station:SCCF:12:1,2010-07-03T21:00:00Z,26.4966,-82.1479,2.19,29.88,1111122 
SCCF RECON,ioos:station:SCCF:12:1,2010-07-03T22:00:00Z,26.4966,-82.1479,2.241,29.91,1111122 
SCCF RECON,ioos:station:SCCF:12:1,2010-07-03T23:00:00Z,26.4966,-82.1479,2.287,29.93,1111122 
SCCF RECON,ioos:station:SCCF:12:1,2010-07-04T00:00:00Z,26.4966,-82.1479,2.239,29.58,1111122 
SCCF RECON,ioos:station:SCCF:12:1,2010-07-04T01:00:00Z,26.4966,-82.1479,2.151,29.14,1111122 
SCCF RECON,ioos:station:SCCF:12:1,2010-07-04T02:00:00Z,26.4966,-82.1479,2.08,28.82,1111122 
SCCF RECON,ioos:station:SCCF:12:1,2010-07-04T03:00:00Z,26.4966,-82.1479,2.029,28.72,1111122 
SCCF RECON,ioos:station:SCCF:12:1,2010-07-04T04:00:00Z,26.4966,-82.1479,1.97,28.61,1111122 
SCCF RECON,ioos:station:SCCF:12:1,2010-07-04T05:00:00Z,26.4966,-82.1479,1.949,28.7,1111122 
SCCF RECON,ioos:station:SCCF:12:1,2010-07-04T06:00:00Z,26.4966,-82.1479,1.98,28.72,1111122 
SCCF RECON,ioos:station:SCCF:12:1,2010-07-04T07:00:00Z,26.4966,-82.1479,2.08,28.73,1111122 
SCCF RECON,ioos:station:SCCF:12:1,2010-07-04T08:00:00Z,26.4966,-82.1479,2.18,28.89,1111122 
SCCF RECON,ioos:station:SCCF:12:1,2010-07-04T09:00:00Z,26.4966,-82.1479,2.27,29.07,1111122 
SCCF RECON,ioos:station:SCCF:12:1,2010-07-04T10:00:00Z,26.4966,-82.1479,2.333,28.77,1111122 
SCCF RECON,ioos:station:SCCF:12:1,2010-07-04T11:00:00Z,26.4966,-82.1479,2.38,28.88,1111122 
SCCF RECON,ioos:station:SCCF:12:1,2010-07-04T12:00:00Z,26.4966,-82.1479,2.36,28.71,1111122 
SCCF RECON,ioos:station:SCCF:12:1,2010-07-04T13:00:00Z,26.4966,-82.1479,2.291,28.7,1111122 
SCCF RECON,ioos:station:SCCF:12:1,2010-07-04T14:00:00Z,26.4966,-82.1479,2.23,28.81,1111122 
SCCF RECON,ioos:station:SCCF:12:1,2010-07-04T15:00:00Z,26.4966,-82.1479,2.16,28.37,1111122 
SCCF RECON,ioos:station:SCCF:12:1,2010-07-04T16:00:00Z,26.4966,-82.1479,2.071,28.16,1111122 
SCCF RECON,ioos:station:SCCF:12:1,2010-07-04T17:00:00Z,26.4966,-82.1479,1.99,28.15,1111122 
SCCF RECON,ioos:station:SCCF:12:1,2010-07-04T18:00:00Z,26.4966,-82.1479,1.941,27.96,1111122 
SCCF RECON,ioos:station:SCCF:12:1,2010-07-04T19:00:00Z,26.4966,-82.1479,1.932,28.25,1111122 
SCCF RECON,ioos:station:SCCF:12:1,2010-07-04T20:00:00Z,26.4966,-82.1479,1.96,28.24,1111122 
SCCF RECON,ioos:station:SCCF:12:1,2010-07-04T21:00:00Z,26.4966,-82.1479,2.05,28.48,1111122 
SCCF RECON,ioos:station:SCCF:12:1,2010-07-04T22:00:00Z,26.4966,-82.1479,2.13,28.47,1111122 
SCCF RECON,ioos:station:SCCF:12:1,2010-07-04T23:00:00Z,26.4966,-82.1479,2.15,28.58,1111122 
SCCF RECON,ioos:station:SCCF:12:1,2010-07-05T00:00:00Z,26.4966,-82.1479,2.133,28.67,1111122 
SCCF RECON,ioos:station:SCCF:12:1,2010-07-05T01:00:00Z,26.4966,-82.1479,2.141,28.6,1111122 
SCCF RECON,ioos:station:SCCF:12:1,2010-07-05T02:00:00Z,26.4966,-82.1479,2.151,28.28,1111122 
SCCF RECON,ioos:station:SCCF:12:1,2010-07-05T03:00:00Z,26.4966,-82.1479,2.147,27.82,1111122 
SCCF RECON,ioos:station:SCCF:12:1,2010-07-05T04:00:00Z,26.4966,-82.1479,2.114,27.77,1111122 
SCCF RECON,ioos:station:SCCF:12:1,2010-07-05T05:00:00Z,26.4966,-82.1479,2.07,27.68,1111122 
SCCF RECON,ioos:station:SCCF:12:1,2010-07-05T06:00:00Z,26.4966,-82.1479,2.039,27.59,1111122 
SCCF RECON,ioos:station:SCCF:12:1,2010-07-05T07:00:00Z,26.4966,-82.1479,2.062,27.46,1111122 
SCCF RECON,ioos:station:SCCF:12:1,2010-07-05T08:00:00Z,26.4966,-82.1479,2.141,27.49,1111122 
SCCF RECON,ioos:station:SCCF:12:1,2010-07-05T09:00:00Z,26.4966,-82.1479,2.25,27.79,1111122 
SCCF RECON,ioos:station:SCCF:12:1,2010-07-05T10:00:00Z,26.4966,-82.1479,2.35,27.8,1111122 
SCCF RECON,ioos:station:SCCF:12:1,2010-07-05T11:00:00Z,26.4966,-82.1479,2.356,27.84,1111122 
SCCF RECON,ioos:station:SCCF:12:1,2010-07-05T12:00:00Z,26.4966,-82.1479,2.352,27.7,1111122 
SCCF RECON,ioos:station:SCCF:12:1,2010-07-05T13:00:00Z,26.4966,-82.1479,2.342,27.68,1111122 
SCCF RECON,ioos:station:SCCF:12:1,2010-07-05T14:00:00Z,26.4966,-82.1479,2.305,27.18,1111122 
SCCF RECON,ioos:station:SCCF:12:1,2010-07-05T15:00:00Z,26.4966,-82.1479,2.231,26.48,1111122 
SCCF RECON,ioos:station:SCCF:12:1,2010-07-05T16:00:00Z,26.4966,-82.1479,2.154,26.31,1111122 
SCCF RECON,ioos:station:SCCF:12:1,2010-07-05T17:00:00Z,26.4966,-82.1479,2.049,26.49,1111122 
SCCF RECON,ioos:station:SCCF:12:1,2010-07-05T18:00:00Z,26.4966,-82.1479,1.949,26.65,1111122 
SCCF RECON,ioos:station:SCCF:12:1,2010-07-05T19:00:00Z,26.4966,-82.1479,1.872,27.04,1111122 
SCCF RECON,ioos:station:SCCF:12:1,2010-07-05T20:00:00Z,26.4966,-82.1479,1.908,27.12,1111122 
SCCF RECON,ioos:station:SCCF:12:1,2010-07-05T21:00:00Z,26.4966,-82.1479,2.13,26.72,1111122 
SCCF RECON,ioos:station:SCCF:12:1,2010-07-05T22:00:00Z,26.4966,-82.1479,2.043,26.92,1111122 
SCCF RECON,ioos:station:SCCF:12:1,2010-07-05T23:00:00Z,26.4966,-82.1479,2.027,26.18,1111122 
SCCF RECON,ioos:station:SCCF:12:1,2010-07-06T00:00:00Z,26.4966,-82.1479,2.05,26.22,1111122 
SCCF RECON,ioos:station:SCCF:12:1,2010-07-06T01:00:00Z,26.4966,-82.1479,2.094,26.19,1111122 
SCCF RECON,ioos:station:SCCF:12:1,2010-07-06T02:00:00Z,26.4966,-82.1479,2.12,25.87,1111122 
SCCF RECON,ioos:station:SCCF:12:1,2010-07-06T03:00:00Z,26.4966,-82.1479,2.075,25.7,1111122 
SCCF RECON,ioos:station:SCCF:12:1,2010-07-06T04:00:00Z,26.4966,-82.1479,2.051,25.76,1111122 
SCCF RECON,ioos:station:SCCF:12:1,2010-07-06T05:00:00Z,26.4966,-82.1479,2.059,25.47,1111122 
SCCF RECON,ioos:station:SCCF:12:1,2010-07-06T06:00:00Z,26.4966,-82.1479,2.091,25.34,1111122 
SCCF RECON,ioos:station:SCCF:12:1,2010-07-06T07:00:00Z,26.4966,-82.1479,2.08,25.37,1111122 
SCCF RECON,ioos:station:SCCF:12:1,2010-07-06T08:00:00Z,26.4966,-82.1479,2.089,25.42,1111122 
SCCF RECON,ioos:station:SCCF:12:1,2010-07-06T09:00:00Z,26.4966,-82.1479,2.157,25.33,1111122 
SCCF RECON,ioos:station:SCCF:12:1,2010-07-06T10:00:00Z,26.4966,-82.1479,2.24,25.42,1111122 
SCCF RECON,ioos:station:SCCF:12:1,2010-07-06T11:00:00Z,26.4966,-82.1479,2.311,25.54,1111122 
SCCF RECON,ioos:station:SCCF:12:1,2010-07-06T12:00:00Z,26.4966,-82.1479,2.358,25.68,1111122 
SCCF RECON,ioos:station:SCCF:12:1,2010-07-06T13:00:00Z,26.4966,-82.1479,2.362,25.35,1111122 
SCCF RECON,ioos:station:SCCF:12:1,2010-07-06T14:00:00Z,26.4966,-82.1479,2.317,25.43,1111122 
SCCF RECON,ioos:station:SCCF:12:1,2010-07-06T15:00:00Z,26.4966,-82.1479,2.246,25.46,1111122 
SCCF RECON,ioos:station:SCCF:12:1,2010-07-06T16:00:00Z,26.4966,-82.1479,2.169,25.25,1111122 
SCCF RECON,ioos:station:SCCF:12:1,2010-07-06T17:00:00Z,26.4966,-82.1479,2.079,25.25,1111122 
SCCF RECON,ioos:station:SCCF:12:1,2010-07-06T18:00:00Z,26.4966,-82.1479,1.98,25.13,1111122 
SCCF RECON,ioos:station:SCCF:12:1,2010-07-06T19:00:00Z,26.4966,-82.1479,1.891,25.21,1111122 
SCCF RECON,ioos:station:SCCF:12:1,2010-07-06T20:00:00Z,26.4966,-82.1479,1.82,25.35,1111122 
SCCF RECON,ioos:station:SCCF:12:1,2010-07-06T21:00:00Z,26.4966,-82.1479,1.81,25.47,1111122 
SCCF RECON,ioos:station:SCCF:12:1,2010-07-06T22:00:00Z,26.4966,-82.1479,1.88,25.87,1111122 
SCCF RECON,ioos:station:SCCF:12:1,2010-07-06T23:00:00Z,26.4966,-82.1479,2.012,25.62,1111122 
SCCF RECON,ioos:station:SCCF:12:1,2010-07-07T00:00:00Z,26.4966,-82.1479,2.099,25.77,1111122 
SCCF RECON,ioos:station:SCCF:12:1,2010-07-07T01:00:00Z,26.4966,-82.1479,2.14,25.88,1111122 
SCCF RECON,ioos:station:SCCF:12:1,2010-07-07T02:00:00Z,26.4966,-82.1479,2.149,25.89,1111122 
SCCF RECON,ioos:station:SCCF:12:1,2010-07-07T03:00:00Z,26.4966,-82.1479,2.136,25.83,1111122 
SCCF RECON,ioos:station:SCCF:12:1,2010-07-07T04:00:00Z,26.4966,-82.1479,2.12,25.35,1111122 
SCCF RECON,ioos:station:SCCF:12:1,2010-07-07T05:00:00Z,26.4966,-82.1479,2.13,25.15,1111122 
SCCF RECON,ioos:station:SCCF:12:1,2010-07-07T06:00:00Z,26.4966,-82.1479,2.15,24.87,1111122 
SCCF RECON,ioos:station:SCCF:12:1,2010-07-07T07:00:00Z,26.4966,-82.1479,2.14,24.72,1111122 
SCCF RECON,ioos:station:SCCF:12:1,2010-07-07T08:00:00Z,26.4966,-82.1479,2.12,24.95,1111122 
SCCF RECON,ioos:station:SCCF:12:1,2010-07-07T09:00:00Z,26.4966,-82.1479,2.15,25.25,1111122 
SCCF RECON,ioos:station:SCCF:12:1,2010-07-07T10:00:00Z,26.4966,-82.1479,2.199,25.4,1111122 
SCCF RECON,ioos:station:SCCF:12:1,2010-07-07T11:00:00Z,26.4966,-82.1479,2.25,25.25,1111122 
SCCF RECON,ioos:station:SCCF:12:1,2010-07-07T12:00:00Z,26.4966,-82.1479,2.31,25.69,1111122 
SCCF RECON,ioos:station:SCCF:12:1,2010-07-07T13:00:00Z,26.4966,-82.1479,2.35,25.52,1111122 
SCCF RECON,ioos:station:SCCF:12:1,2010-07-07T14:00:00Z,26.4966,-82.1479,2.36,26.35,1111122 
SCCF RECON,ioos:station:SCCF:12:1,2010-07-07T15:00:00Z,26.4966,-82.1479,2.339,26.45,1111122 
SCCF RECON,ioos:station:SCCF:12:1,2010-07-07T16:00:00Z,26.4966,-82.1479,2.26,25.49,1111122 
SCCF RECON,ioos:station:SCCF:12:1,2010-07-07T17:00:00Z,26.4966,-82.1479,2.137,25.15,1111122 
SCCF RECON,ioos:station:SCCF:12:1,2010-07-07T18:00:00Z,26.4966,-82.1479,1.99,25.55,1111122 
SCCF RECON,ioos:station:SCCF:12:1,2010-07-07T19:00:00Z,26.4966,-82.1479,1.86,25.3,1111122 
SCCF RECON,ioos:station:SCCF:12:1,2010-07-07T20:00:00Z,26.4966,-82.1479,1.75,25.62,1111122 
SCCF RECON,ioos:station:SCCF:12:1,2010-07-07T21:00:00Z,26.4966,-82.1479,1.69,26.78,1111122 
SCCF RECON,ioos:station:SCCF:12:1,2010-07-07T22:00:00Z,26.4966,-82.1479,1.684,27.49,1111122 
SCCF RECON,ioos:station:SCCF:12:1,2010-07-07T23:00:00Z,26.4966,-82.1479,1.769,27.16,1111122 
SCCF RECON,ioos:station:SCCF:12:1,2010-07-08T00:00:00Z,26.4966,-82.1479,1.873,27.0,1111122 
SCCF RECON,ioos:station:SCCF:12:1,2010-07-08T01:00:00Z,26.4966,-82.1479,1.97,26.78,1111122 
SCCF RECON,ioos:station:SCCF:12:1,2010-07-08T02:00:00Z,26.4966,-82.1479,2.05,26.54,1111122 
SCCF RECON,ioos:station:SCCF:12:1,2010-07-08T03:00:00Z,26.4966,-82.1479,2.12,26.56,1111122 
SCCF RECON,ioos:station:SCCF:12:1,2010-07-08T04:00:00Z,26.4966,-82.1479,2.16,25.67,1111122 
SCCF RECON,ioos:station:SCCF:12:1,2010-07-08T05:00:00Z,26.4966,-82.1479,2.164,25.24,1111122 
SCCF RECON,ioos:station:SCCF:12:1,2010-07-08T06:00:00Z,26.4966,-82.1479,2.13,24.72,1111122 
SCCF RECON,ioos:station:SCCF:12:1,2010-07-08T07:00:00Z,26.4966,-82.1479,2.09,24.18,1111122 
SCCF RECON,ioos:station:SCCF:12:1,2010-07-08T08:00:00Z,26.4966,-82.1479,2.05,24.27,1111122 
SCCF RECON,ioos:station:SCCF:12:1,2010-07-08T09:00:00Z,26.4966,-82.1479,2.051,24.22,1111122 
SCCF RECON,ioos:station:SCCF:12:1,2010-07-08T10:00:00Z,26.4966,-82.1479,2.11,24.83,1111122 
SCCF RECON,ioos:station:SCCF:12:1,2010-07-08T11:00:00Z,26.4966,-82.1479,2.2,24.18,1111122 
SCCF RECON,ioos:station:SCCF:12:1,2010-07-08T12:00:00Z,26.4966,-82.1479,2.298,24.58,1111122 
SCCF RECON,ioos:station:SCCF:12:1,2010-07-08T13:00:00Z,26.4966,-82.1479,2.38,24.6,1111122 
SCCF RECON,ioos:station:SCCF:12:1,2010-07-08T14:00:00Z,26.4966,-82.1479,2.421,24.99,1111122 
SCCF RECON,ioos:station:SCCF:12:1,2010-07-08T15:00:00Z,26.4966,-82.1479,2.443,24.93,1111122 
SCCF RECON,ioos:station:SCCF:12:1,2010-07-08T17:00:00Z,26.4966,-82.1479,2.246,24.44,1111122 
SCCF RECON,ioos:station:SCCF:12:1,2010-07-08T18:00:00Z,26.4966,-82.1479,2.107,25.14,1111122 
SCCF RECON,ioos:station:SCCF:12:1,2010-07-08T19:00:00Z,26.4966,-82.1479,1.96,25.31,1111122 
SCCF RECON,ioos:station:SCCF:12:1,2010-07-08T20:00:00Z,26.4966,-82.1479,1.83,25.69,1111122 
SCCF RECON,ioos:station:SCCF:12:1,2010-07-08T21:00:00Z,26.4966,-82.1479,1.72,26.88,1111122 
SCCF RECON,ioos:station:SCCF:12:1,2010-07-08T22:00:00Z,26.4966,-82.1479,1.637,27.2,1111122 
SCCF RECON,ioos:station:SCCF:12:1,2010-07-08T23:00:00Z,26.4966,-82.1479,1.62,26.57,1111122 
SCCF RECON,ioos:station:SCCF:12:1,2010-07-09T00:00:00Z,26.4966,-82.1479,1.69,25.98,1111122 
SCCF RECON,ioos:station:SCCF:12:1,2010-07-09T01:00:00Z,26.4966,-82.1479,1.821,26.32,1111122 
SCCF RECON,ioos:station:SCCF:12:1,2010-07-09T02:00:00Z,26.4966,-82.1479,1.972,26.47,1111122 
SCCF RECON,ioos:station:SCCF:12:1,2010-07-09T03:00:00Z,26.4966,-82.1479,2.119,26.64,1111122 
SCCF RECON,ioos:station:SCCF:12:1,2010-07-09T04:00:00Z,26.4966,-82.1479,2.2,26.74,1111122 
SCCF RECON,ioos:station:SCCF:12:1,2010-07-09T05:00:00Z,26.4966,-82.1479,2.22,25.42,1111122 
SCCF RECON,ioos:station:SCCF:12:1,2010-07-09T06:00:00Z,26.4966,-82.1479,2.19,24.88,1111122 
SCCF RECON,ioos:station:SCCF:12:1,2010-07-09T07:00:00Z,26.4966,-82.1479,2.14,24.53,1111122 
SCCF RECON,ioos:station:SCCF:12:1,2010-07-09T08:00:00Z,26.4966,-82.1479,2.13,24.02,1111122 
SCCF RECON,ioos:station:SCCF:12:1,2010-07-09T09:00:00Z,26.4966,-82.1479,2.15,23.73,1111122 
SCCF RECON,ioos:station:SCCF:12:1,2010-07-09T10:00:00Z,26.4966,-82.1479,2.17,23.58,1111122 
SCCF RECON,ioos:station:SCCF:12:1,2010-07-09T11:00:00Z,26.4966,-82.1479,2.228,23.37,1111122 
SCCF RECON,ioos:station:SCCF:12:1,2010-07-09T12:00:00Z,26.4966,-82.1479,2.33,23.61,1111122 
SCCF RECON,ioos:station:SCCF:12:1,2010-07-09T13:00:00Z,26.4966,-82.1479,2.4,24.77,1111122 
SCCF RECON,ioos:station:SCCF:12:1,2010-07-09T14:00:00Z,26.4966,-82.1479,2.469,24.78,1111122 
SCCF RECON,ioos:station:SCCF:12:1,2010-07-09T15:00:00Z,26.4966,-82.1479,2.506,24.69,1111122 
SCCF RECON,ioos:station:SCCF:12:1,2010-07-09T16:00:00Z,26.4966,-82.1479,2.498,24.89,1111122 
SCCF RECON,ioos:station:SCCF:12:1,2010-07-09T17:00:00Z,26.4966,-82.1479,2.405,25.47,1111122 
SCCF RECON,ioos:station:SCCF:12:1,2010-07-09T18:00:00Z,26.4966,-82.1479,2.27,25.64,1111122 
SCCF RECON,ioos:station:SCCF:12:1,2010-07-09T19:00:00Z,26.4966,-82.1479,2.111,25.57,1111122 
SCCF RECON,ioos:station:SCCF:12:1,2010-07-09T20:00:00Z,26.4966,-82.1479,1.97,25.81,1111122 
SCCF RECON,ioos:station:SCCF:12:1,2010-07-09T21:00:00Z,26.4966,-82.1479,1.83,25.79,1111122 
SCCF RECON,ioos:station:SCCF:12:1,2010-07-09T22:00:00Z,26.4966,-82.1479,1.7,26.38,1111122 
SCCF RECON,ioos:station:SCCF:12:1,2010-07-09T23:00:00Z,26.4966,-82.1479,1.61,27.19,1111122 
SCCF RECON,ioos:station:SCCF:12:1,2010-07-10T00:00:00Z,26.4966,-82.1479,1.58,28.5,1111122 
SCCF RECON,ioos:station:SCCF:12:1,2010-07-10T01:00:00Z,26.4966,-82.1479,1.7,27.86,1111122 
SCCF RECON,ioos:station:SCCF:12:1,2010-07-10T02:00:00Z,26.4966,-82.1479,1.87,27.2,1111122 
SCCF RECON,ioos:station:SCCF:12:1,2010-07-10T03:00:00Z,26.4966,-82.1479,2.026,27.44,1111122 
SCCF RECON,ioos:station:SCCF:12:1,2010-07-10T04:00:00Z,26.4966,-82.1479,2.15,27.34,1111122 
SCCF RECON,ioos:station:SCCF:12:1,2010-07-10T05:00:00Z,26.4966,-82.1479,2.21,26.28,1111122 
SCCF RECON,ioos:station:SCCF:12:1,2010-07-10T06:00:00Z,26.4966,-82.1479,2.22,25.49,1111122 
SCCF RECON,ioos:station:SCCF:12:1,2010-07-10T07:00:00Z,26.4966,-82.1479,2.17,24.98,1111122 
SCCF RECON,ioos:station:SCCF:12:1,2010-07-10T08:00:00Z,26.4966,-82.1479,2.12,26.28,1111122 
SCCF RECON,ioos:station:SCCF:12:1,2010-07-10T09:00:00Z,26.4966,-82.1479,2.11,25.04,1111122 
SCCF RECON,ioos:station:SCCF:12:1,2010-07-10T10:00:00Z,26.4966,-82.1479,2.15,25.29,1111122 
SCCF RECON,ioos:station:SCCF:12:1,2010-07-10T11:00:00Z,26.4966,-82.1479,2.2,25.92,1111122 
SCCF RECON,ioos:station:SCCF:12:1,2010-07-10T12:00:00Z,26.4966,-82.1479,2.277,26.52,1111122 
SCCF RECON,ioos:station:SCCF:12:1,2010-07-10T13:00:00Z,26.4966,-82.1479,2.347,26.14,1111122 
SCCF RECON,ioos:station:SCCF:12:1,2010-07-10T14:00:00Z,26.4966,-82.1479,2.421,27.38,1111122 
SCCF RECON,ioos:station:SCCF:12:1,2010-07-10T15:00:00Z,26.4966,-82.1479,2.5,27.45,1111122 
SCCF RECON,ioos:station:SCCF:12:1,2010-07-10T16:00:00Z,26.4966,-82.1479,2.541,27.44,1111122 
SCCF RECON,ioos:station:SCCF:12:1,2010-07-10T17:00:00Z,26.4966,-82.1479,2.519,27.29,1111122 
SCCF RECON,ioos:station:SCCF:12:1,2010-07-10T18:00:00Z,26.4966,-82.1479,2.423,27.78,1111122 
SCCF RECON,ioos:station:SCCF:12:1,2010-07-10T19:00:00Z,26.4966,-82.1479,2.279,25.58,1111122 
SCCF RECON,ioos:station:SCCF:12:1,2010-07-10T20:00:00Z,26.4966,-82.1479,2.113,27.17,1111122 
SCCF RECON,ioos:station:SCCF:12:1,2010-07-10T21:00:00Z,26.4966,-82.1479,1.953,27.36,1111122 
SCCF RECON,ioos:station:SCCF:12:1,2010-07-10T22:00:00Z,26.4966,-82.1479,1.809,26.92,1111122 
SCCF RECON,ioos:station:SCCF:12:1,2010-07-10T23:00:00Z,26.4966,-82.1479,1.683,26.82,1111122 
SCCF RECON,ioos:station:SCCF:12:1,2010-07-11T00:00:00Z,26.4966,-82.1479,1.594,27.74,1111122 
SCCF RECON,ioos:station:SCCF:12:1,2010-07-11T01:00:00Z,26.4966,-82.1479,1.576,27.42,1111122 
SCCF RECON,ioos:station:SCCF:12:1,2010-07-11T02:00:00Z,26.4966,-82.1479,1.7,27.3,1111122 
SCCF RECON,ioos:station:SCCF:12:1,2010-07-11T03:00:00Z,26.4966,-82.1479,1.889,27.64,1111122 
SCCF RECON,ioos:station:SCCF:12:1,2010-07-11T04:00:00Z,26.4966,-82.1479,2.043,27.53,1111122 
SCCF RECON,ioos:station:SCCF:12:1,2010-07-11T05:00:00Z,26.4966,-82.1479,2.16,27.68,1111122 
SCCF RECON,ioos:station:SCCF:12:1,2010-07-11T06:00:00Z,26.4966,-82.1479,2.228,26.56,1111122 
SCCF RECON,ioos:station:SCCF:12:1,2010-07-11T07:00:00Z,26.4966,-82.1479,2.229,26.3,1111122 
SCCF RECON,ioos:station:SCCF:12:1,2010-07-11T08:00:00Z,26.4966,-82.1479,2.16,26.11,1111122 
SCCF RECON,ioos:station:SCCF:12:1,2010-07-11T09:00:00Z,26.4966,-82.1479,2.091,26.33,1111122 
SCCF RECON,ioos:station:SCCF:12:1,2010-07-11T10:00:00Z,26.4966,-82.1479,2.074,26.17,1111122 
SCCF RECON,ioos:station:SCCF:12:1,2010-07-11T11:00:00Z,26.4966,-82.1479,2.097,26.3,1111122 
SCCF RECON,ioos:station:SCCF:12:1,2010-07-11T12:00:00Z,26.4966,-82.1479,2.15,26.85,1111122 
SCCF RECON,ioos:station:SCCF:12:1,2010-07-11T13:00:00Z,26.4966,-82.1479,2.238,26.63,1111122 
SCCF RECON,ioos:station:SCCF:12:1,2010-07-11T14:00:00Z,26.4966,-82.1479,2.348,27.24,1111122 
SCCF RECON,ioos:station:SCCF:12:1,2010-07-11T15:00:00Z,26.4966,-82.1479,2.459,27.12,1111122 
SCCF RECON,ioos:station:SCCF:12:1,2010-07-11T16:00:00Z,26.4966,-82.1479,2.531,27.18,1111122 
SCCF RECON,ioos:station:SCCF:12:1,2010-07-11T17:00:00Z,26.4966,-82.1479,2.55,26.58,1111122 
SCCF RECON,ioos:station:SCCF:12:1,2010-07-11T18:00:00Z,26.4966,-82.1479,2.499,26.36,1111122 